WN4MDN Weather Reports


time (UTC)temp
C
wind
direction
speed
KPH
gust
KPH
rain 1hr
cm
rain 24hr
cm
rain mn
cm
humidity
%
barometer
mb
20260505235534 22 49 6.4 17.7 0.00 0.00 0.00 79 1015.1
20260505235037 22 40 9.7 17.7 0.00 0.00 0.00 78 1015.2
20260505234543 22 46 6.4 17.7 0.00 0.00 0.00 78 1015.2
20260505234034 22 74 8.0 16.1 0.00 0.00 0.00 78 1015.3
20260505233532 23 57 8.0 17.7 0.00 0.00 0.00 78 1015.2
20260505233048 23 28 9.7 20.9 0.00 0.00 0.00 77 1015.2
20260505232534 23 26 11.3 24.1 0.00 0.00 0.00 76 1015.2
20260505232036 23 38 14.5 24.1 0.00 0.00 0.00 76 1015.1
20260505231553 23 42 14.5 22.5 0.00 0.00 0.00 76 1015.1
20260505231034 23 20 12.9 22.5 0.00 0.00 0.00 76 1015.1
20260505230533 23 34 9.7 22.5 0.00 0.00 0.00 76 1015.0
20260505230050 23 31 8.0 22.5 0.00 0.00 0.00 76 1015.1
20260505225534 24 26 14.5 25.7 0.00 0.00 0.00 76 1015.1
20260505225033 24 5 11.3 25.7 0.00 0.00 0.00 76 1015.1
20260505224548 24 27 14.5 24.1 0.00 0.00 0.00 75 1015.1
20260505224034 24 9 16.1 27.4 0.00 0.00 0.00 75 1015.1
20260505223533 24 39 17.7 27.4 0.00 0.00 0.00 75 1015.0
20260505223045 24 55 19.3 27.4 0.00 0.00 0.00 75 1014.9
20260505222537 24 56 12.9 24.1 0.00 0.00 0.00 75 1014.9
20260505222038 24 40 14.5 24.1 0.00 0.00 0.00 75 1014.9
20260505221551 24 12 14.5 25.7 0.00 0.00 0.00 75 1014.9
20260505221035 25 34 16.1 25.7 0.00 0.00 0.00 74 1014.9
20260505220534 25 45 16.1 24.1 0.00 0.00 0.00 74 1014.9
20260505220049 25 40 16.1 24.1 0.00 0.00 0.00 73 1014.9
20260505215537 25 38 14.5 22.5 0.00 0.00 0.00 73 1014.8
20260505215035 25 15 12.9 24.1 0.00 0.00 0.00 72 1014.7
20260505214554 25 13 12.9 25.7 0.00 0.00 0.00 72 1014.7
20260505214032 25 44 16.1 25.7 0.00 0.00 0.00 72 1014.6
20260505213531 25 67 16.1 25.7 0.00 0.00 0.00 71 1014.6
20260505213045 25 42 14.5 25.7 0.00 0.00 0.00 71 1014.6
20260505212532 25 53 17.7 25.7 0.00 0.00 0.00 70 1014.5
20260505212035 26 68 16.1 25.7 0.00 0.00 0.00 70 1014.6
20260505211614 25 26 14.5 24.1 0.00 0.00 0.00 70 1014.6
20260505211035 25 34 14.5 27.4 0.00 0.00 0.00 70 1014.6
20260505210534 25 43 14.5 27.4 0.00 0.00 0.00 70 1014.6
20260505210046 25 76 16.1 24.1 0.00 0.00 0.00 70 1014.6
20260505205535 26 55 16.1 24.1 0.00 0.00 0.00 69 1014.7
20260505205036 25 27 9.7 27.4 0.00 0.00 0.00 70 1014.6
20260505204602 25 20 12.9 27.4 0.00 0.00 0.00 69 1014.6
20260505204032 26 75 19.3 25.7 0.00 0.00 0.00 68 1014.6
20260505203535 26 47 16.1 25.7 0.00 0.00 0.00 68 1014.7
20260505203047 26 92 16.1 25.7 0.00 0.00 0.00 68 1014.7
20260505202535 26 36 12.9 25.7 0.00 0.00 0.00 68 1014.8
20260505202034 25 5 12.9 25.7 0.00 0.00 0.00 69 1014.9
20260505201545 25 40 16.1 25.7 0.00 0.00 0.00 68 1014.8
20260505201034 25 30 11.3 22.5 0.00 0.00 0.00 68 1015.0
20260505200534 25 40 16.1 22.5 0.00 0.00 0.00 68 1014.9
20260505200044 26 44 12.9 22.5 0.00 0.00 0.00 68 1014.9
20260505195534 26 32 12.9 27.4 0.00 0.00 0.00 68 1014.8
20260505195032 25 49 14.5 27.4 0.00 0.00 0.00 68 1014.8
20260505194542 25 49 16.1 25.7 0.00 0.00 0.00 69 1014.8
20260505194035 25 33 14.5 22.5 0.00 0.00 0.00 69 1015.0
20260505193534 25 35 14.5 27.4 0.00 0.00 0.00 68 1015.0
20260505193045 26 47 12.9 27.4 0.00 0.00 0.00 68 1015.0
20260505192534 26 36 16.1 25.7 0.00 0.00 0.00 67 1015.0
20260505192034 26 81 11.3 25.7 0.00 0.00 0.00 67 1015.0
20260505191548 26 42 14.5 22.5 0.00 0.00 0.00 66 1015.0
20260505191034 26 360 11.3 22.5 0.00 0.00 0.00 68 1015.0
20260505190536 26 39 16.1 25.7 0.00 0.00 0.00 67 1015.2
20260505190044 26 61 12.9 25.7 0.00 0.00 0.00 68 1015.4
20260505185533 25 44 16.1 25.7 0.00 0.00 0.00 68 1015.5
20260505185035 26 44 11.3 22.5 0.00 0.00 0.00 67 1015.6
20260505184545 26 30 11.3 19.3 0.00 0.00 0.00 68 1015.8
20260505184032 25 42 12.9 22.5 0.00 0.00 0.00 68 1015.8
20260505183534 25 360 12.9 22.5 0.00 0.00 0.00 68 1015.8
20260505183042 25 20 14.5 24.1 0.00 0.00 0.00 68 1015.8
20260505182534 25 360 12.9 24.1 0.00 0.00 0.00 68 1016.0
20260505182032 26 49 14.5 24.1 0.00 0.00 0.00 67 1015.9
20260505181606 26 34 14.5 22.5 0.00 0.00 0.00 64 1015.9
20260505181036 26 41 11.3 27.4 0.00 0.00 0.00 65 1015.9
20260505180534 26 355 11.3 27.4 0.00 0.00 0.00 66 1016.0
20260505180101 26 46 11.3 22.5 0.00 0.00 0.00 65 1016.0
20260505175535 26 59 12.9 22.5 0.00 0.00 0.00 67 1016.0
20260505175032 26 51 12.9 25.7 0.00 0.00 0.00 67 1016.0
20260505174549 26 36 14.5 25.7 0.00 0.00 0.00 66 1016.1
20260505174034 26 63 14.5 25.7 0.00 0.00 0.00 68 1016.1
20260505173533 25 30 11.3 27.4 0.00 0.00 0.00 68 1016.1
20260505173045 26 71 14.5 27.4 0.00 0.00 0.00 67 1016.2
20260505172533 26 42 14.5 22.5 0.00 0.00 0.00 66 1016.1
20260505172034 26 55 14.5 24.1 0.00 0.00 0.00 66 1016.1
20260505171551 26 59 12.9 24.1 0.00 0.00 0.00 68 1016.0
20260505171034 26 63 12.9 20.9 0.00 0.00 0.00 66 1016.0
20260505170533 26 104 11.3 25.7 0.00 0.00 0.00 67 1015.9
20260505170044 26 44 14.5 25.7 0.00 0.00 0.00 65 1016.0
20260505165537 26 77 17.7 27.4 0.00 0.00 0.00 67 1016.0
20260505165034 26 34 16.1 27.4 0.00 0.00 0.00 67 1016.0
20260505164541 26 38 14.5 24.1 0.00 0.00 0.00 68 1016.0
20260505164033 26 20 14.5 24.1 0.00 0.00 0.00 67 1016.1
20260505163531 25 66 14.5 22.5 0.00 0.00 0.00 68 1016.2
20260505163048 25 46 14.5 22.5 0.00 0.00 0.00 66 1016.3
20260505162532 26 44 9.7 25.7 0.00 0.00 0.00 65 1016.3
20260505162034 26 76 12.9 25.7 0.00 0.00 0.00 69 1016.4
20260505161550 25 73 16.1 25.7 0.00 0.00 0.00 69 1016.4
20260505161034 25 60 11.3 20.9 0.00 0.00 0.00 70 1016.3
20260505160535 25 58 14.5 20.9 0.00 0.00 0.00 71 1016.4
20260505153046 25 86 12.9 22.5 0.00 0.00 0.00 68 1016.4
20260505152534 25 74 14.5 25.7 0.00 0.00 0.00 69 1016.4
20260505152033 25 13 12.9 25.7 0.00 0.00 0.00 70 1016.3
20260505151548 25 24 14.5 24.1 0.00 0.00 0.00 69 1016.2
20260505151034 25 24 14.5 24.1 0.00 0.00 0.00 68 1016.3
20260505150533 25 5 14.5 24.1 0.00 0.00 0.00 69 1016.3
20260505140534 25 64 14.5 24.1 0.00 0.00 0.00 73 1016.0
20260505125034 22 360 12.9 22.5 0.00 0.00 0.00 83 1015.7
20260505124546 21 29 9.7 17.7 0.00 0.00 0.00 84 1015.7
20260505124037 21 42 9.7 17.7 0.00 0.00 0.00 85 1015.7
20260505123538 21 23 9.7 16.1 0.00 0.00 0.00 86 1015.9
20260505123050 21 355 8.0 16.1 0.00 0.00 0.00 87 1016.0
20260505122534 20 29 8.0 16.1 0.00 0.00 0.00 88 1015.8
20260505122034 20 22 4.8 12.9 0.00 0.00 0.00 90 1016.0
20260505121546 20 17 0.0 11.3 0.00 0.00 0.00 92 1015.8
20260505121035 19 0 0.0 1.6 0.00 0.00 0.00 93 1015.7
20260505120534 18 0 0.0 0.0 0.00 0.00 0.00 93 1015.7
20260505120104 18 0 0.0 6.4 0.00 0.00 0.00 94 1015.7
20260505115533 18 0 0.0 6.4 0.00 0.00 0.00 94 1015.6
20260505115031 17 349 0.0 4.8 0.00 0.00 0.00 94 1015.4
20260505114554 17 0 0.0 0.0 0.00 0.00 0.00 94 1015.4
20260505114033 17 0 0.0 0.0 0.00 0.00 0.00 94 1015.4
20260505113533 16 0 0.0 0.0 0.00 0.00 0.00 94 1015.5
20260505113041 16 0 0.0 3.2 0.00 0.00 0.00 94 1015.3
20260505112533 16 0 0.0 3.2 0.00 0.00 0.00 94 1015.1
20260505112034 16 338 1.6 4.8 0.00 0.00 0.00 94 1015.0
20260505111547 16 347 1.6 4.8 0.00 0.00 0.00 94 1014.9
20260505111036 16 0 0.0 0.0 0.00 0.00 0.00 94 1014.9
20260505110534 16 0 0.0 0.0 0.00 0.00 0.00 94 1015.0
20260505110106 16 0 0.0 1.6 0.00 0.00 0.00 93 1015.0
20260505102036 15 0 0.0 0.0 0.00 0.00 0.00 93 1014.6
20260505101543 15 0 0.0 0.0 0.00 0.00 0.00 93 1014.5
20260505101034 15 0 0.0 0.0 0.00 0.00 0.00 93 1014.6
20260505100534 15 0 0.0 0.0 0.00 0.00 0.00 93 1014.5
20260505100043 15 0 0.0 4.8 0.00 0.00 0.00 93 1014.4
20260505095534 15 0 0.0 4.8 0.00 0.00 0.00 93 1014.4
20260505095035 15 316 1.6 4.8 0.00 0.00 0.00 93 1014.3
20260505094547 15 346 0.0 3.2 0.00 0.00 0.00 93 1014.1
20260505094034 15 0 0.0 1.6 0.00 0.00 0.00 93 1014.1
20260505093534 15 0 0.0 1.6 0.00 0.00 0.00 93 1014.0
20260505093049 15 0 0.0 0.0 0.00 0.00 0.00 93 1014.1
20260505092534 15 0 0.0 1.6 0.00 0.00 0.00 93 1014.0
20260505092035 15 0 0.0 1.6 0.00 0.00 0.00 93 1014.2
20260505091553 15 0 0.0 1.6 0.00 0.00 0.00 93 1014.1
20260505091036 15 0 0.0 3.2 0.00 0.00 0.00 93 1014.2
20260505090533 15 0 0.0 3.2 0.00 0.00 0.00 93 1014.2
20260505090045 15 0 0.0 0.0 0.00 0.00 0.00 92 1014.1
20260505085534 15 0 0.0 0.0 0.00 0.00 0.00 93 1014.1
20260505085035 15 0 0.0 0.0 0.00 0.00 0.00 93 1014.1
20260505084551 15 0 0.0 0.0 0.00 0.00 0.00 93 1014.0
20260505084057 15 0 0.0 0.0 0.00 0.00 0.00 93 1014.1
20260505083538 15 0 0.0 0.0 0.00 0.00 0.00 93 1014.1
20260505083056 15 0 0.0 0.0 0.00 0.00 0.00 93 1014.0
20260505082534 15 0 0.0 1.6 0.00 0.00 0.00 93 1014.0
20260505082034 15 0 0.0 1.6 0.00 0.00 0.00 93 1013.9
20260505081545 15 0 0.0 1.6 0.00 0.00 0.00 93 1014.0
20260505081035 15 0 0.0 0.0 0.00 0.00 0.00 92 1014.0
20260505080533 15 0 0.0 0.0 0.00 0.00 0.00 92 1013.7
20260505080045 16 0 0.0 0.0 0.00 0.00 0.00 92 1013.9
20260505075535 16 0 0.0 0.0 0.00 0.00 0.00 93 1013.9
20260505075033 16 0 0.0 0.0 0.00 0.00 0.00 93 1013.8
20260505074546 15 0 0.0 1.6 0.00 0.00 0.00 93 1013.9
20260505074031 15 0 0.0 1.6 0.00 0.00 0.00 92 1014.0
20260505073533 16 0 0.0 1.6 0.00 0.00 0.00 92 1014.2
20260505073055 16 0 0.0 0.0 0.00 0.00 0.00 92 1014.2
20260505072534 16 0 0.0 0.0 0.00 0.00 0.00 92 1014.3
20260505072034 16 0 0.0 0.0 0.00 0.00 0.00 92 1014.4
20260505071546 16 0 0.0 0.0 0.00 0.00 0.00 92 1014.5
20260505071034 16 0 0.0 0.0 0.00 0.00 0.00 92 1014.4
20260505070534 16 0 0.0 0.0 0.00 0.00 0.00 92 1014.4
20260505070050 16 0 0.0 0.0 0.00 0.00 0.00 92 1014.6
20260505065534 16 0 0.0 0.0 0.00 0.00 0.00 92 1014.6
20260505065031 16 0 0.0 0.0 0.00 0.00 0.00 92 1014.5
20260505064612 16 0 0.0 0.0 0.00 0.00 0.00 92 1014.5
20260505064033 16 0 0.0 0.0 0.00 0.00 0.00 92 1014.6
20260505063531 16 0 0.0 0.0 0.00 0.00 0.00 92 1014.7
20260505063052 16 0 0.0 0.0 0.00 0.00 0.00 92 1014.8
20260505062533 16 0 0.0 0.0 0.00 0.00 0.00 92 1014.9
20260505062033 16 0 0.0 0.0 0.00 0.00 0.00 92 1014.9
20260505061542 16 0 0.0 0.0 0.00 0.00 0.00 92 1014.8
20260505061036 16 0 0.0 0.0 0.00 0.00 0.00 92 1014.9
20260505060533 16 0 0.0 0.0 0.00 0.00 0.00 92 1014.9
20260505060052 16 0 0.0 3.2 0.00 0.00 0.00 92 1015.0
20260505055533 16 0 0.0 4.8 0.00 0.00 0.00 91 1015.1
20260505055034 16 0 1.6 6.4 0.00 0.00 0.00 91 1015.3
20260505054552 16 309 3.2 6.4 0.00 0.00 0.00 92 1015.4
20260505054034 16 30 1.6 3.2 0.00 0.00 0.00 91 1015.3
20260505053534 16 0 0.0 3.2 0.00 0.00 0.00 91 1015.3
20260505053047 16 0 0.0 1.6 0.00 0.00 0.00 91 1015.2
20260505052534 16 0 0.0 3.2 0.00 0.00 0.00 91 1015.1
20260505052034 16 0 0.0 3.2 0.00 0.00 0.00 91 1015.0
20260505051545 16 30 1.6 3.2 0.00 0.00 0.00 91 1015.1
20260505051032 16 30 1.6 3.2 0.00 0.00 0.00 91 1015.2
20260505050534 16 30 1.6 3.2 0.00 0.00 0.00 91 1015.4
20260505041546 17 0 0.0 3.2 0.00 0.00 0.00 90 1015.7
20260505041034 16 30 0.0 3.2 0.00 0.00 0.00 90 1015.5
20260505040536 16 0 0.0 0.0 0.00 0.00 0.00 89 1015.6
20260505040048 17 0 0.0 0.0 0.00 0.00 0.00 89 1015.5
20260505035533 17 0 0.0 0.0 0.00 0.00 0.00 89 1015.5
20260505035033 17 0 0.0 0.0 0.00 0.00 0.00 89 1015.7
20260505034605 17 0 0.0 0.0 0.00 0.00 0.00 89 1015.7
20260505034033 17 0 0.0 1.6 0.00 0.00 0.00 89 1015.7
20260505033536 17 0 0.0 3.2 0.00 0.00 0.00 88 1015.8
20260505033049 17 0 0.0 3.2 0.00 0.00 0.00 88 1015.8
20260505032532 17 0 0.0 3.2 0.00 0.00 0.00 88 1015.8
20260505032034 17 30 1.6 3.2 0.00 0.00 0.00 88 1015.9
20260505031539 17 30 0.0 0.0 0.00 0.00 0.00 88 1015.9
20260505031034 17 0 0.0 0.0 0.00 0.00 0.00 88 1016.0
20260505030537 18 0 0.0 0.0 0.00 0.00 0.00 87 1016.0
20260505030049 18 0 0.0 0.0 0.00 0.00 0.00 87 1016.0
20260505025535 18 0 0.0 0.0 0.00 0.00 0.00 87 1016.0
20260505025034 18 0 0.0 0.0 0.00 0.00 0.00 87 1015.9
20260505024545 18 0 0.0 0.0 0.00 0.00 0.00 87 1015.8
20260505024034 18 0 0.0 0.0 0.00 0.00 0.00 86 1015.8
20260505023533 18 0 0.0 0.0 0.00 0.00 0.00 86 1015.9
20260505023047 18 0 0.0 0.0 0.00 0.00 0.00 86 1015.9
20260505022534 18 0 0.0 1.6 0.00 0.00 0.00 86 1016.0
20260505022034 19 0 0.0 3.2 0.00 0.00 0.00 86 1016.0
20260505021542 19 0 0.0 3.2 0.00 0.00 0.00 86 1016.0
20260505021034 19 30 1.6 3.2 0.00 0.00 0.00 86 1016.0
20260505020536 19 30 1.6 3.2 0.00 0.00 0.00 86 1015.8
20260505020054 19 30 1.6 3.2 0.00 0.00 0.00 86 1015.9
20260505015532 19 30 1.6 3.2 0.00 0.00 0.00 85 1015.8
20260505015033 19 30 1.6 4.8 0.00 0.00 0.00 85 1015.7
20260505014547 19 30 1.6 4.8 0.00 0.00 0.00 85 1015.7
20260505014036 20 30 3.2 4.8 0.00 0.00 0.00 84 1015.6
20260505013531 20 30 1.6 4.8 0.00 0.00 0.00 84 1015.7
20260505013046 20 30 1.6 4.8 0.00 0.00 0.00 84 1015.8
20260505012536 20 30 0.0 4.8 0.00 0.00 0.00 84 1016.0
20260505012038 20 30 1.6 6.4 0.00 0.00 0.00 84 1016.0
20260505011546 20 30 3.2 6.4 0.00 0.00 0.00 84 1015.8
20260505011033 20 26 3.2 6.4 0.00 0.00 0.00 84 1015.6
20260505010535 20 34 3.2 6.4 0.00 0.00 0.00 83 1015.6
20260505010105 20 34 3.2 8.0 0.00 0.00 0.00 83 1015.5
20260505005532 20 42 3.2 8.0 0.00 0.00 0.00 83 1015.3
20260505005034 21 38 4.8 8.0 0.00 0.00 0.00 82 1015.2
20260505004559 21 44 3.2 8.0 0.00 0.00 0.00 82 1015.3
20260505004036 21 42 4.8 9.7 0.00 0.00 0.00 82 1015.3
20260505003534 21 20 4.8 9.7 0.00 0.00 0.00 82 1015.4
20260505003045 21 54 4.8 12.9 0.00 0.00 0.00 81 1015.2
20260505002533 21 28 4.8 12.9 0.00 0.00 0.00 81 1015.1
20260505002031 21 41 6.4 12.9 0.00 0.00 0.00 81 1015.1
20260505001549 21 28 6.4 12.9 0.00 0.00 0.00 81 1015.3
20260505001037 21 34 6.4 14.5 0.00 0.00 0.00 81 1015.1
20260505000531 21 53 8.0 17.7 0.00 0.00 0.00 81 1014.9
20260505000047 22 39 8.0 17.7 0.00 0.00 0.00 80 1014.9